"Pseudo-MPEC" for P21kojv

Created 2021 Sep 20 16:07:15 UT using Find_Orb

Click here for an explanation of pseudo-MPECs

 
 Astrometry: 
     P21kojv  C2021 09 07LP[2qTZtVLmDKaf'YAstrometry7C0j*pWredacted;8#g]*9geLF52
     P21kojv  C2021 09 07_t`3P2'NlEySe[f$vlcFJclick!Ik8.here*ZM0?GJRQ\3Z(23[xF52
     P21kojv  C2021 09 07nMxGjyqEb^0F8W7_'CkWKFC^\forA-^v46C$5explanationnIlVF52

Station data:
(F52) Pan-STARRS 2, Haleakala  (N20.707384 W156.255910)  US/Hawaii. 1.8-m
   Ritchey-Chrétien + CCD.

Orbital elements:  P21kojv
   Perihelion 2021 Aug 23.769932 +/- 49.5155 TT = 18:28:42 (JD 2459450.269932)
Epoch 2021 Sep  7.0 TT = JDT 2459464.5   Earth MOID: 0.3897   Ma: 0.0175
M   4.21792288 +/- 17.750681        (J2000 ecliptic)          AutoNEOCP
n   0.29640919 +/- 0.254269         Peri.  217.71934 +/- 87.421621
a   2.22779351 +/- 1.27402          Node   115.18647 +/- 46.544514
e   0.3725153 +/- 0.24686           Incl.    3.79818 +/- 2.1182619
P   3.33                   H 21.3   G  0.15   U 11.8  SR
q 1.39790617 +/- 0.428953    Q 3.05768085 +/- 95.8658
From 3 observations 2021 Sept. 7 (33.2 min); mean residual 0".05
Residuals in arcseconds: 
210907 F52  .02-  .05-    210907 F52  .04+  .10+    210907 F52  .02-  .05-    

Ephemerides (geocentric):
Date (UTC) HH   RA              Dec         delta   r     elong  mag " sig PA
---- -- -- --  -------------   -----------  ------ ------ -----  --- ---- ---
2021 09 20 16  22 59 34.181   -17 44 59.11  .43584 1.4195 158.9 21.1  41d 175
2021 09 20 17  22 59 34.885   -17 44 56.29  .43598 1.4196 158.9 21.1  41d 175
2021 09 20 18  22 59 35.591   -17 44 53.42  .43612 1.4197 158.9 21.1  41d 175
2021 09 20 19  22 59 36.299   -17 44 50.51  .43627 1.4197 158.8 21.1  41d 175
2021 09 20 20  22 59 37.010   -17 44 47.55  .43641 1.4198 158.8 21.1  41d 175
2021 09 20 21  22 59 37.722   -17 44 44.56  .43655 1.4199 158.8 21.1  41d 175
2021 09 20 22  22 59 38.436   -17 44 41.52  .43670 1.4199 158.7 21.1  41d 175
2021 09 20 23  22 59 39.152   -17 44 38.45  .43684 1.4200 158.7 21.1  41d 175
2021 09 21 00  22 59 39.870   -17 44 35.33  .43699 1.4200 158.7 21.1  41d 175
2021 09 21 01  22 59 40.590   -17 44 32.16  .43713 1.4201 158.6 21.1  41d 175
2021 09 21 02  22 59 41.312   -17 44 28.96  .43728 1.4202 158.6 21.1  41d 175
2021 09 21 03  22 59 42.036   -17 44 25.72  .43743 1.4202 158.6 21.1  41d 175
2021 09 21 04  22 59 42.762   -17 44 22.43  .43757 1.4203 158.5 21.1  42d 175
2021 09 21 05  22 59 43.490   -17 44 19.10  .43772 1.4204 158.5 21.1  42d 175
2021 09 21 06  22 59 44.220   -17 44 15.73  .43786 1.4204 158.5 21.1  42d 175
2021 09 21 07  22 59 44.952   -17 44 12.32  .43801 1.4205 158.4 21.1  42d 175
2021 09 21 08  22 59 45.686   -17 44 08.86  .43816 1.4206 158.4 21.1  42d 175
2021 09 21 09  22 59 46.422   -17 44 05.37  .43830 1.4206 158.4 21.1  42d 175
2021 09 21 10  22 59 47.160   -17 44 01.83  .43845 1.4207 158.3 21.1  42d 175
2021 09 21 11  22 59 47.900   -17 43 58.25  .43860 1.4208 158.3 21.1  42d 174
2021 09 21 12  22 59 48.641   -17 43 54.63  .43875 1.4208 158.3 21.1  42d 174
2021 09 21 13  22 59 49.385   -17 43 50.97  .43890 1.4209 158.3 21.1  42d 174
2021 09 21 14  22 59 50.131   -17 43 47.26  .43904 1.4210 158.2 21.1  42d 174
2021 09 21 15  22 59 50.879   -17 43 43.52  .43919 1.4210 158.2 21.1  42d 174
2021 09 21 16  22 59 51.629   -17 43 39.73  .43934 1.4211 158.2 21.1  42d 174
2021 09 21 17  22 59 52.381   -17 43 35.90  .43949 1.4212 158.1 21.1  42d 174
2021 09 21 18  22 59 53.136   -17 43 32.03  .43964 1.4212 158.1 21.1  42d 174
2021 09 21 19  22 59 53.892   -17 43 28.12  .43979 1.4213 158.1 21.1  42d 174
2021 09 21 20  22 59 54.650   -17 43 24.16  .43994 1.4214 158.0 21.1  42d 174
2021 09 21 21  22 59 55.410   -17 43 20.17  .44009 1.4214 158.0 21.1  42d 174
2021 09 21 22  22 59 56.172   -17 43 16.13  .44024 1.4215 158.0 21.1  42d 174
2021 09 21 23  22 59 56.936   -17 43 12.05  .44039 1.4216 157.9 21.1  42d 174
2021 09 22 00  22 59 57.703   -17 43 07.93  .44054 1.4216 157.9 21.1  42d 174
2021 09 22 01  22 59 58.471   -17 43 03.77  .44069 1.4217 157.9 21.1  42d 174
2021 09 22 02  22 59 59.241   -17 42 59.56  .44084 1.4217 157.8 21.1  42d 174
2021 09 22 03  23 00 00.014   -17 42 55.32  .44099 1.4218 157.8 21.1  42d 174
2021 09 22 04  23 00 00.788   -17 42 51.03  .44114 1.4219 157.8 21.2  43d 174
2021 09 22 05  23 00 01.565   -17 42 46.70  .44129 1.4220 157.7 21.2  43d 174
2021 09 22 06  23 00 02.344   -17 42 42.33  .44145 1.4220 157.7 21.2  43d 174
2021 09 22 07  23 00 03.124   -17 42 37.92  .44160 1.4221 157.7 21.2  43d 174
2021 09 22 08  23 00 03.907   -17 42 33.47  .44175 1.4222 157.6 21.2  43d 174
2021 09 22 09  23 00 04.692   -17 42 28.98  .44190 1.4222 157.6 21.2  43d 174
2021 09 22 10  23 00 05.479   -17 42 24.44  .44205 1.4223 157.6 21.2  43d 174
2021 09 22 11  23 00 06.268   -17 42 19.86  .44221 1.4224 157.5 21.2  43d 174
2021 09 22 12  23 00 07.059   -17 42 15.24  .44236 1.4224 157.5 21.2  43d 174
2021 09 22 13  23 00 07.852   -17 42 10.58  .44251 1.4225 157.5 21.2  43d 174
2021 09 22 14  23 00 08.647   -17 42 05.88  .44267 1.4226 157.4 21.2  43d 174
2021 09 22 15  23 00 09.444   -17 42 01.14  .44282 1.4226 157.4 21.2  43d 174